Weather History for Rush City, MN

Change the Weather History Date:

Sunday, August 4, 2013

  Actual Average (KCBG) Record (KCBG)
Temperature  
Mean Temperature 60 °F -  
Max Temperature 74 °F 79 °F 96 °F (1989)
Min Temperature 45 °F 57 °F 45 °F (1971)
Degree Days  
Heating Degree Days 6    
Growing Degree Days 10 (Base 50)    
Moisture  
Dew Point 50 °F    
Average Humidity 71    
Maximum Humidity 96    
Minimum Humidity 40    
Precipitation  
Precipitation 0.00 in - - ()
Sea Level Pressure  
Sea Level Pressure 30.17 in    
Wind  
Wind Speed 2 mph (South)    
Max Wind Speed 8 mph    
Max Gust Speed -    
Visibility 10 miles    
Events      
Averages and records for this station are not official NWS values.
T = Trace of Precipitation, MM = Missing Value Source: NWS Daily Summary

Daily Weather History Graph

Daily Weather History Graph

Search for Another Location

Airport:

Trip Planner

Search our weather history database for the weather conditions in past years. The results will help you decide how hot, cold, wet, or windy it might be!

Date:

Astronomy

Aug. 04, 2013 Rise Set
Actual Time 5:58 AM CDT 8:35 PM CDT
Civil Twilight 5:25 AM CDT 9:09 PM CDT
Nautical Twilight 4:42 AM CDT 9:52 PM CDT
Astronomical Twilight 3:53 AM CDT 10:40 PM CDT
Moon 3:59 AM CDT (8/4) 6:59 PM CDT (8/4)
Length of Visible Light 15h 44m
Length of Day
14h 36m
Waning Crescent, 4% of the Moon is Illuminated
Aug 4
Waning Crescent
Aug 6
New
Aug 14
First Quarter
Aug 20
Full
Aug 28
Last Quarter

Hourly Weather History & Observations

Time (CDT) Temp. Dew Point Humidity Pressure Visibility Wind Dir Wind Speed Gust Speed Precip Events Conditions
12:15 AM 50.7 °F 47.1 °F 87% 30.23 in 10.0 mi Calm Calm - N/A   Scattered Clouds
12:35 AM 49.6 °F 46.4 °F 89% 30.22 in 10.0 mi Calm Calm - N/A   Scattered Clouds
12:55 AM 49.5 °F 46.8 °F 90% 30.23 in 10.0 mi Calm Calm - N/A   Scattered Clouds
1:15 AM 48.9 °F 46.8 °F 92% 30.23 in 10.0 mi Calm Calm - N/A   Scattered Clouds
1:35 AM 48.2 °F 46.0 °F 92% 30.24 in 10.0 mi Calm Calm - N/A   Scattered Clouds
1:55 AM 47.5 °F 45.5 °F 93% 30.24 in 10.0 mi Calm Calm - N/A   Mostly Cloudy
2:15 AM 47.3 °F 45.5 °F 93% 30.24 in 10.0 mi Calm Calm - N/A   Mostly Cloudy
2:35 AM 47.1 °F 45.3 °F 93% 30.24 in 10.0 mi Calm Calm - N/A   Scattered Clouds
2:54 AM 47.5 °F 45.9 °F 94% 30.23 in 10.0 mi Calm Calm - N/A   Scattered Clouds
3:15 AM 46.6 °F 44.8 °F 93% 30.23 in 10.0 mi Calm Calm - N/A   Scattered Clouds
3:35 AM 46.6 °F 45.3 °F 95% 30.23 in 10.0 mi Calm Calm - N/A   Scattered Clouds
3:54 AM 46.2 °F 44.8 °F 95% 30.23 in 10.0 mi Calm Calm - N/A   Scattered Clouds
4:15 AM 46.8 °F 45.5 °F 95% 30.22 in 10.0 mi Calm Calm - N/A   Scattered Clouds
4:35 AM 47.7 °F 46.6 °F 96% 30.22 in 10.0 mi Calm Calm - N/A   Scattered Clouds
4:55 AM 47.3 °F 45.7 °F 94% 30.22 in 10.0 mi Calm Calm - N/A   Scattered Clouds
5:15 AM 48.4 °F 46.8 °F 94% 30.21 in 10.0 mi Calm Calm - N/A   Mostly Cloudy
5:35 AM 48.2 °F 46.4 °F 93% 30.21 in 10.0 mi Calm Calm - N/A   Mostly Cloudy
5:55 AM 47.7 °F 46.0 °F 94% 30.22 in 10.0 mi Calm Calm - N/A   Mostly Cloudy
6:15 AM 45.0 °F 43.2 °F 93% 30.23 in 10.0 mi Calm Calm - N/A   Mostly Cloudy
6:35 AM 45.3 °F 43.9 °F 95% 30.23 in 10.0 mi Calm Calm - N/A   Scattered Clouds
6:55 AM 48.4 °F 46.9 °F 95% 30.23 in 10.0 mi Calm Calm - N/A   Scattered Clouds
7:15 AM 50.2 °F 48.4 °F 94% 30.23 in 10.0 mi Calm Calm - N/A   Clear
7:35 AM 53.1 °F 50.5 °F 91% 30.23 in 10.0 mi Calm Calm - N/A   Clear
7:55 AM 54.5 °F 50.9 °F 88% 30.24 in 10.0 mi Calm Calm - N/A   Clear
8:15 AM 56.5 °F 52.0 °F 85% 30.24 in 10.0 mi Calm Calm - N/A   Clear
8:35 AM 58.3 °F 52.0 °F 80% 30.25 in 10.0 mi Calm Calm - N/A   Clear
8:55 AM 60.1 °F 52.7 °F 77% 30.26 in 10.0 mi Calm Calm - N/A   Scattered Clouds
9:15 AM 62.1 °F 53.2 °F 73% 30.25 in 10.0 mi Calm Calm - N/A   Scattered Clouds
9:35 AM 62.6 °F 52.3 °F 69% 30.25 in 10.0 mi SSE 4.6 mph - N/A   Scattered Clouds
9:55 AM 63.1 °F 52.5 °F 68% 30.24 in 10.0 mi SSE 3.5 mph - N/A   Scattered Clouds
10:15 AM 63.9 °F 53.8 °F 70% 30.24 in 10.0 mi ESE 3.5 mph - N/A   Scattered Clouds
10:35 AM 63.5 °F 53.2 °F 69% 30.23 in 10.0 mi ESE 4.6 mph - N/A   Mostly Cloudy
10:55 AM 64.6 °F 52.3 °F 64% 30.23 in 10.0 mi SE 6.9 mph - N/A   Scattered Clouds
11:15 AM 67.3 °F 53.2 °F 61% 30.23 in 10.0 mi SE 5.8 mph - N/A   Scattered Clouds
11:35 AM 68.2 °F 52.9 °F 58% 30.21 in 10.0 mi SSE 6.9 mph - N/A   Clear
11:55 AM 69.4 °F 52.5 °F 55% 30.21 in 10.0 mi South 3.5 mph - N/A   Clear
12:15 PM 70.2 °F 53.2 °F 55% 30.20 in 10.0 mi South 4.6 mph - N/A   Clear
12:35 PM 68.7 °F 53.2 °F 58% 30.19 in 10.0 mi Calm Calm - N/A   Clear
12:55 PM 69.3 °F 53.1 °F 56% 30.19 in 10.0 mi SSE 3.5 mph - N/A   Scattered Clouds
1:15 PM 70.5 °F 52.9 °F 54% 30.18 in 10.0 mi South 4.6 mph - N/A   Scattered Clouds
1:35 PM 73.6 °F 50.9 °F 45% 30.18 in 10.0 mi WSW 4.6 mph - N/A   Scattered Clouds
1:55 PM 72.5 °F 49.3 °F 44% 30.18 in 10.0 mi SW 6.9 mph - N/A   Scattered Clouds
2:15 PM 72.7 °F 50.9 °F 46% 30.17 in 10.0 mi SSE 3.5 mph - N/A   Scattered Clouds
2:35 PM 73.6 °F 48.4 °F 41% 30.16 in 10.0 mi South 8.1 mph - N/A   Scattered Clouds
2:55 PM 71.8 °F 49.1 °F 45% 30.15 in 10.0 mi South 6.9 mph - N/A   Mostly Cloudy
3:15 PM 71.4 °F 50.4 °F 47% 30.15 in 10.0 mi South 5.8 mph - N/A   Mostly Cloudy
3:35 PM 73.4 °F 48.9 °F 42% 30.14 in 10.0 mi SSE 8.1 mph - N/A   Mostly Cloudy
3:55 PM 74.5 °F 48.7 °F 40% 30.14 in 10.0 mi South 6.9 mph - N/A   Scattered Clouds
4:15 PM 73.9 °F 49.3 °F 42% 30.14 in 10.0 mi SSW 5.8 mph - N/A   Scattered Clouds
4:35 PM 72.7 °F 50.0 °F 45% 30.13 in 10.0 mi South 4.6 mph - N/A   Scattered Clouds
4:55 PM 73.0 °F 48.9 °F 42% 30.13 in 10.0 mi WSW 4.6 mph - N/A   Scattered Clouds
5:15 PM 73.0 °F 49.6 °F 44% 30.12 in 10.0 mi Calm Calm - N/A   Clear
5:35 PM 73.4 °F 48.4 °F 41% 30.11 in 10.0 mi WSW 4.6 mph - N/A   Clear
5:55 PM 73.2 °F 49.5 °F 43% 30.11 in 10.0 mi SW 5.8 mph - N/A   Clear
6:15 PM 71.8 °F 50.2 °F 46% 30.10 in 10.0 mi South 3.5 mph - N/A   Clear
6:35 PM 70.9 °F 51.4 °F 50% 30.09 in 10.0 mi South 3.5 mph - N/A   Scattered Clouds
6:55 PM 71.8 °F 52.3 °F 50% 30.09 in 10.0 mi South 6.9 mph - N/A   Scattered Clouds
7:15 PM 71.8 °F 52.5 °F 51% 30.08 in 10.0 mi South 8.1 mph - N/A   Mostly Cloudy
7:35 PM 70.7 °F 52.2 °F 52% 30.07 in 10.0 mi South 6.9 mph - N/A   Scattered Clouds
7:55 PM 69.3 °F 52.2 °F 54% 30.07 in 10.0 mi South 5.8 mph - N/A   Clear
8:15 PM 67.5 °F 52.0 °F 58% 30.07 in 10.0 mi South 3.5 mph - N/A   Clear
8:35 PM 64.8 °F 52.2 °F 64% 30.06 in 10.0 mi South 3.5 mph - N/A   Clear
8:55 PM 62.6 °F 52.7 °F 70% 30.06 in 10.0 mi South 3.5 mph - N/A   Clear
9:15 PM 59.5 °F 52.5 °F 78% 30.06 in 10.0 mi Calm Calm - N/A   Clear
9:35 PM 60.4 °F 52.5 °F 75% 30.06 in 10.0 mi SSE 3.5 mph - N/A   Scattered Clouds
9:55 PM 58.5 °F 52.0 °F 79% 30.06 in 10.0 mi South 3.5 mph - N/A   Scattered Clouds
10:15 PM 58.6 °F 52.2 °F 79% 30.06 in 10.0 mi South 4.6 mph - N/A   Scattered Clouds
10:35 PM 58.3 °F 52.2 °F 80% 30.06 in 10.0 mi South 3.5 mph - N/A   Scattered Clouds
10:55 PM 58.6 °F 52.0 °F 79% 30.05 in 10.0 mi South 4.6 mph - N/A   Scattered Clouds
11:15 PM 59.7 °F 52.3 °F 77% 30.04 in 10.0 mi South 4.6 mph - N/A   Scattered Clouds
11:35 PM 59.2 °F 52.3 °F 78% 30.03 in 10.0 mi SSE 5.8 mph - N/A   Scattered Clouds
11:55 PM 59.4 °F 52.9 °F 79% 30.03 in 10.0 mi SSE 4.6 mph - N/A   Clear